RH
15 14 13 12 12 13 15 15 16 16 15 14 13 11 10 9 9 9 8 8 8 9 10 10 11 11 11 10 10 11 11 11 10 10 11 11 11 11 10 11 11 11 12 14 15 15 14 13 13 13 13 13 12 13 13 13 13 13 15 16 15 15 15 14 13 13 14 14 13 13 14 12 13 15 16 17 14 16 24 32 42 46 46 48 47 46 51 54
13 12 11 11 12 14 17 18 18 17 15 14 13 11 10 9 8 9 8 8 8 9 9 10 10 11 11 11 11 11 11 11 11 12 12 12 11 10 10 11 11 11 13 14 14 13 12 12 13 12 13 13 13 13 13 13 13 13 15 16 15 14 14 14 13 13 14 14 14 14 14 13 14 16 18 17 15 15 20 26 36 44 46 48 51 51 53 56
13 13 14 15 15 17 19 19 19 17 15 14 12 11 10 8 8 8 8 8 8 9 9 9 10 10 10 11 11 10 11 13 14 14 14 13 12 10 10 11 11 12 14 15 14 13 12 12 12 12 12 13 13 12 13 13 12 13 14 15 14 14 14 13 12 13 14 15 14 14 13 14 17 19 20 20 20 16 18 23 28 36 42 46 53 56 56 59
17 17 17 17 17 17 18 19 18 16 15 14 12 10 9 9 8 7 7 7 8 8 8 9 9 10 10 10 10 10 12 15 15 14 14 12 12 11 11 10 11 14 15 14 13 12 12 12 12 12 11 14 14 12 13 13 12 13 13 13 13 14 13 13 13 13 14 15 14 14 14 16 19 21 21 22 23 18 18 25 24 29 39 48 55 57 58 60
18 17 18 17 17 17 18 18 17 15 14 13 12 10 9 9 8 7 7 7 7 8 8 9 9 9 9 9 9 10 13 18 17 15 14 13 11 10 10 10 12 15 15 14 12 12 11 12 12 11 11 14 14 11 13 13 12 13 12 12 13 13 13 13 13 13 13 14 14 14 14 16 19 22 24 23 26 26 26 30 25 28 39 49 59 62 61 60
18 17 18 18 18 18 18 18 17 16 14 13 12 11 10 9 9 8 7 7 7 7 8 8 8 9 9 8 9 10 15 20 19 17 16 14 12 11 10 10 13 15 14 13 12 11 11 11 10 11 11 13 13 12 14 13 11 12 12 12 13 12 13 13 13 13 13 14 14 14 15 16 19 24 26 26 31 33 31 31 31 36 42 48 57 62 61 57
18 17 18 18 18 19 20 20 19 18 16 14 12 11 10 9 9 9 8 8 7 7 8 8 8 8 8 9 11 13 16 18 16 16 16 14 13 12 11 11 13 14 14 12 11 10 10 10 11 11 11 12 12 12 13 12 11 11 12 12 12 13 12 12 13 13 14 15 15 14 17 19 22 27 30 31 33 31 30 32 39 46 47 50 56 58 58 55
18 18 18 18 19 20 21 21 21 20 19 18 15 12 11 10 9 9 9 9 8 8 8 8 8 8 8 10 15 16 15 15 12 12 13 12 12 12 12 12 13 14 12 11 10 10 10 11 11 11 11 12 12 12 12 11 11 10 11 12 12 13 12 13 13 13 15 16 16 16 19 21 22 27 32 34 32 31 33 37 44 49 50 56 57 56 55 54
19 19 19 18 20 21 22 21 20 19 20 21 19 14 11 11 10 10 10 9 9 9 8 8 7 8 11 12 16 18 15 12 11 12 13 12 12 12 13 13 13 13 12 12 10 10 12 12 13 11 13 13 12 13 12 11 13 11 11 13 12 13 14 14 13 14 16 16 16 17 19 21 22 26 30 31 32 34 37 41 45 49 53 57 57 56 55 55
19 19 19 19 20 21 21 21 20 19 19 20 21 19 13 12 12 11 11 9 10 10 8 8 8 9 12 14 18 19 15 11 11 13 13 11 12 12 12 13 13 13 12 12 10 11 12 13 13 12 13 12 12 13 11 11 14 13 12 13 13 14 13 13 12 15 17 17 17 18 20 21 22 27 29 31 35 34 36 42 46 47 51 54 55 56 55 55
18 18 19 19 20 21 21 20 19 19 18 19 22 22 17 13 13 13 12 10 10 10 9 8 8 11 13 15 19 19 14 11 10 11 10 10 11 12 12 13 13 13 12 12 11 12 13 13 12 12 13 13 12 12 11 11 12 12 13 13 12 13 13 12 13 16 18 17 18 18 20 21 22 26 28 31 37 36 35 40 45 45 47 50 53 55 55 56
16 17 18 18 18 19 20 19 19 18 19 19 21 23 20 14 13 13 13 12 11 10 10 8 9 13 15 17 17 16 14 12 11 9 9 9 10 11 11 11 12 13 13 12 12 13 14 14 13 13 14 13 13 12 12 12 11 12 13 12 12 12 13 12 13 17 18 17 18 18 19 21 21 23 25 28 34 37 35 36 40 44 46 49 53 55 56 56
13 14 15 17 17 17 17 17 17 18 19 20 21 23 22 16 13 14 13 13 12 11 10 9 11 14 18 19 16 15 14 12 11 10 9 9 10 10 9 9 10 11 12 13 14 14 13 14 14 14 14 14 14 14 14 13 12 13 13 12 14 14 14 13 14 17 18 17 18 17 20 24 23 21 25 28 31 34 35 33 35 40 44 48 50 51 52 53
12 12 13 14 15 16 15 15 15 16 18 21 22 23 22 19 16 15 15 14 13 13 12 11 13 16 20 20 17 16 15 13 12 12 11 11 10 10 9 9 10 11 12 14 16 15 13 13 15 15 14 14 15 14 14 13 13 14 13 13 14 16 17 15 15 18 17 17 17 16 22 29 25 21 26 29 30 32 33 33 34 38 42 44 46 46 47 48
12 12 11 12 13 14 15 14 14 15 17 21 22 23 22 21 19 18 17 16 15 15 13 14 15 18 21 18 17 18 16 15 14 13 12 11 11 11 11 11 12 13 14 15 16 15 14 14 15 15 14 15 14 15 16 15 14 14 15 15 14 17 19 17 17 19 18 17 18 15 21 31 25 20 26 29 30 31 32 32 34 36 39 41 43 44 45 46
12 11 11 11 12 13 14 14 14 14 17 21 22 23 23 22 21 20 19 18 18 16 16 17 17 20 22 19 18 18 17 17 16 14 14 13 13 13 13 13 13 13 14 14 15 16 16 15 16 15 14 15 14 16 18 17 16 16 18 19 17 17 18 19 18 19 19 18 18 17 23 32 26 20 25 28 29 31 31 32 34 36 38 39 41 43 43 45
12 11 11 10 11 12 13 14 14 15 18 21 21 21 23 22 22 23 21 19 19 17 17 20 20 21 23 21 20 19 18 18 16 16 15 14 15 15 15 15 14 15 15 15 15 15 17 17 17 17 15 15 15 16 18 19 19 18 19 21 20 18 19 23 21 19 19 19 20 19 22 29 24 20 24 27 29 30 30 31 33 37 39 39 39 40 41 43
12 12 11 11 11 12 13 14 14 16 18 20 19 20 21 20 22 24 23 20 19 17 18 20 20 23 23 20 21 21 19 18 17 16 16 16 16 16 16 17 16 17 17 17 17 16 17 17 18 19 18 17 17 18 19 20 20 21 21 22 21 18 20 25 24 22 20 20 21 20 22 25 22 21 23 25 28 29 29 30 33 35 37 38 37 37 39 41
12 12 11 11 11 12 13 13 14 17 18 18 18 18 20 20 21 24 23 22 20 19 20 20 20 24 24 21 21 21 20 19 18 17 17 16 17 17 18 18 17 17 17 18 18 18 18 19 19 21 22 22 20 19 20 20 20 21 22 22 22 20 20 23 23 23 21 21 23 23 25 26 23 22 22 25 29 30 30 31 33 34 35 36 36 36 37 38
12 11 11 11 11 12 12 13 16 18 18 18 18 19 22 22 24 25 23 23 22 19 19 19 20 23 24 22 23 22 20 19 19 18 18 17 17 18 18 17 17 18 18 18 20 20 19 20 22 23 25 23 21 20 20 19 19 20 21 21 22 22 23 24 23 22 21 23 27 25 24 24 23 23 22 24 28 30 31 32 33 33 34 36 36 36 37 36
11 11 11 10 10 12 12 14 16 18 18 18 18 21 24 23 25 25 21 20 21 18 18 19 19 21 23 24 24 24 23 22 20 19 18 18 18 18 18 18 18 18 18 18 20 20 19 21 24 22 22 21 21 22 22 20 19 20 19 21 23 22 24 27 24 22 22 23 27 27 23 24 25 23 21 22 24 27 29 31 33 33 34 35 36 37 36 35
11 10 11 10 11 12 13 15 17 17 18 19 20 24 26 26 26 25 22 20 19 19 19 18 18 20 23 24 25 25 25 25 23 21 20 19 20 20 20 19 19 19 19 18 19 19 19 22 23 20 21 22 23 24 22 22 22 21 21 24 26 24 25 28 25 23 23 22 27 27 23 25 26 23 22 22 22 23 26 28 29 31 31 33 35 35 35 34
11 11 10 11 12 13 14 17 17 18 19 20 22 24 26 27 26 26 25 22 19 18 19 18 18 22 24 25 25 25 26 27 26 24 23 21 21 21 21 20 20 20 20 19 19 19 21 23 22 20 21 23 24 25 23 24 24 22 23 25 28 28 26 28 30 29 25 23 26 26 22 23 24 22 20 21 22 25 27 27 28 30 31 31 32 32 31 32
11 12 12 13 14 15 17 19 19 19 20 20 22 24 25 26 25 27 26 23 20 18 19 19 19 23 25 25 26 27 28 29 28 27 26 24 23 23 22 21 22 22 21 21 21 20 23 25 22 20 22 23 24 25 23 23 26 26 25 25 29 32 28 27 33 34 30 27 25 24 22 22 24 24 23 22 23 25 25 25 27 28 30 30 30 30 31 32
13 14 14 15 16 18 19 20 21 20 20 22 23 25 27 25 24 27 26 26 26 20 19 20 20 24 25 24 26 27 28 28 28 29 27 26 26 25 24 24 23 25 23 23 23 23 25 26 25 23 24 23 24 26 24 22 27 29 26 24 26 31 30 27 30 30 29 29 30 27 23 23 26 28 27 25 24 24 24 23 23 25 26 27 28 30 32 34
16 17 17 17 18 19 20 22 21 20 20 23 23 24 25 23 23 27 28 31 29 21 22 23 23 26 26 26 27 27 29 28 26 28 28 27 27 26 27 25 23 24 23 22 23 24 26 27 26 25 25 25 26 29 28 24 25 30 29 26 24 25 28 28 29 27 27 30 33 31 26 24 26 28 29 26 23 25 26 24 24 24 24 25 27 29 32 34
18 19 19 19 19 19 22 24 23 20 21 21 21 21 23 21 23 29 32 33 30 25 26 26 25 29 29 30 29 29 34 31 26 27 28 29 29 27 28 26 23 23 21 22 24 25 25 25 26 25 25 27 27 28 32 29 27 32 35 31 27 28 30 31 31 30 29 30 31 30 27 25 24 27 31 28 25 27 28 27 26 26 26 27 28 29 30 32
19 20 19 20 21 20 22 23 22 22 21 19 17 18 20 20 24 31 36 39 37 30 28 27 29 31 30 32 31 31 35 33 31 32 31 32 32 29 29 28 27 27 25 26 29 29 27 26 27 27 27 28 26 28 33 32 29 34 38 33 32 35 36 36 35 33 33 33 30 29 31 28 24 27 33 30 27 29 31 29 27 27 29 30 31 32 33 34
21 21 21 22 24 24 23 22 22 21 19 16 13 13 16 21 28 34 36 39 39 33 30 32 34 33 32 33 33 33 35 35 35 36 34 35 35 32 32 32 32 32 31 31 33 34 31 28 27 26 28 29 29 31 32 32 33 35 36 33 33 35 36 36 37 33 34 35 30 29 33 32 27 29 34 33 30 30 33 32 29 28 30 31 33 36 37 38
23 22 21 22 24 24 24 22 20 19 16 13 12 11 15 23 33 39 38 36 36 35 34 35 35 34 34 35 36 36 37 37 36 37 37 38 37 36 36 36 35 35 35 34 33 33 31 30 28 26 26 28 30 32 32 34 34 35 35 35 34 36 34 33 33 31 32 33 30 30 33 32 28 27 31 35 33 31 32 33 31 30 30 31 33 34 35 36
23 22 22 24 25 25 24 21 18 17 15 15 14 14 18 27 35 40 39 34 33 33 33 34 34 34 36 39 40 40 40 39 38 38 39 38 37 37 37 36 36 35 35 34 32 30 29 29 29 27 25 25 26 29 31 33 34 35 36 37 38 38 37 35 33 33 31 29 32 33 32 31 28 26 30 33 30 26 28 30 32 33 33 34 34 34 35 36
24 25 27 28 28 28 25 21 18 16 15 15 16 17 21 28 34 36 34 32 33 33 33 34 33 33 36 38 40 40 41 40 37 35 35 35 35 35 34 34 34 32 33 33 32 30 28 27 26 25 26 24 24 27 30 31 32 33 35 38 37 34 38 37 34 35 33 31 35 34 31 31 28 28 31 31 26 23 26 27 29 32 34 36 35 34 35 35
26 27 29 30 30 28 25 21 18 15 13 14 16 17 20 25 31 34 31 31 33 32 32 33 32 32 34 34 34 35 37 37 33 30 29 29 30 30 28 27 27 27 29 30 28 25 25 25 22 23 24 24 23 25 28 29 30 33 35 38 37 33 39 39 32 33 33 32 37 35 33 32 29 29 31 28 26 26 26 26 27 29 32 33 33 32 33 33
27 29 30 30 30 28 25 21 17 14 13 15 17 19 18 18 24 31 31 30 29 28 29 31 31 33 35 34 33 33 34 33 27 24 24 24 26 26 25 23 22 23 24 24 24 21 22 27 27 25 25 25 23 23 26 27 29 33 34 35 35 33 38 37 33 35 34 34 42 41 36 32 31 35 36 31 30 29 28 27 27 30 31 33 32 31 32 33
27 29 30 29 27 26 24 20 16 13 14 16 18 19 16 14 19 25 27 27 27 26 27 27 27 30 32 32 31 31 31 30 25 23 23 22 23 24 24 23 21 22 22 22 25 22 20 24 25 23 22 22 23 23 24 24 26 30 30 30 31 30 32 33 34 36 33 34 40 39 34 31 33 36 34 32 33 31 32 31 30 32 33 34 33 32 32 34
24 25 26 26 25 24 23 18 15 13 15 19 19 17 15 16 19 22 23 23 25 26 26 25 25 27 28 28 27 27 27 27 25 26 26 23 24 24 24 24 22 22 22 22 26 24 21 23 22 19 20 19 20 22 23 23 26 29 29 29 30 29 30 34 36 36 34 33 32 30 31 30 31 32 32 31 32 32 34 35 34 34 35 35 35 34 34 35
18 20 23 24 23 23 21 16 13 13 15 18 19 18 18 19 19 19 19 19 22 23 24 27 28 26 27 27 26 24 24 25 25 25 26 25 27 27 26 27 25 23 22 21 24 25 23 25 25 21 21 20 20 21 22 22 23 26 28 29 30 30 30 33 35 35 34 33 30 29 32 31 29 34 37 35 34 34 35 36 36 36 36 37 38 38 39 39
15 18 22 22 22 22 20 16 14 15 18 19 19 19 19 20 18 17 18 18 20 21 21 26 28 26 25 27 26 23 23 25 26 25 25 25 28 28 27 28 26 23 22 21 24 27 22 23 26 25 23 20 19 20 21 23 22 23 26 27 28 31 32 34 37 38 36 35 34 33 33 32 29 32 38 38 36 36 35 36 38 38 39 40 41 42 44 45
14 16 20 21 20 20 19 16 16 17 20 20 19 21 22 21 18 17 18 19 19 20 20 22 24 22 22 24 25 24 23 25 26 26 26 25 28 28 26 27 27 25 24 23 24 26 25 25 27 28 28 25 21 21 23 24 24 24 25 25 25 27 29 31 35 38 40 41 41 38 35 34 32 32 35 38 38 37 36 37 39 40 42 43 44 46 46 47
13 14 19 20 18 18 17 17 17 19 21 21 20 23 25 23 20 18 19 20 19 20 21 21 21 21 22 21 23 23 23 24 25 25 25 24 26 27 26 26 26 25 24 23 23 24 27 29 27 26 31 29 26 28 30 30 30 30 30 30 30 30 31 32 32 34 37 37 38 39 36 35 38 37 36 39 40 38 38 38 39 41 43 45 47 48 48 49
11 12 18 19 18 18 17 18 21 22 24 23 21 22 22 21 21 21 21 21 20 20 21 21 21 21 22 21 23 23 22 23 23 22 22 21 21 24 25 24 25 24 23 22 24 25 25 26 26 26 29 29 29 32 33 32 30 29 30 31 33 35 36 38 36 34 36 36 35 36 34 33 38 38 36 39 41 38 37 39 39 41 43 46 48 49 50 50
11 12 15 14 14 16 17 22 24 21 22 24 23 22 21 19 20 21 22 23 22 21 21 21 21 22 22 22 23 23 21 22 21 20 20 19 19 21 22 22 21 21 20 21 24 25 22 20 22 22 22 24 26 28 29 29 28 28 29 28 30 34 36 38 38 35 34 37 39 40 38 38 41 40 36 37 38 37 38 39 40 42 44 47 49 50 50 50
12 13 13 11 11 13 17 22 23 19 21 23 21 20 19 18 19 20 22 24 23 22 23 23 22 23 23 23 23 22 21 22 21 19 20 20 19 19 20 22 22 19 19 21 23 24 22 20 20 21 21 22 22 21 20 22 24 27 30 31 32 33 34 38 42 41 40 43 47 50 46 45 47 46 42 41 39 38 39 39 40 43 46 49 50 51 52 52
13 14 14 12 11 12 15 19 21 21 22 21 18 19 19 18 19 20 22 23 23 23 24 23 23 23 23 22 22 23 22 22 22 21 20 21 21 21 20 22 23 21 21 24 26 24 23 24 26 25 25 27 27 24 21 19 19 21 28 33 32 31 34 37 38 41 44 42 42 44 42 43 48 50 49 46 42 38 38 38 39 41 45 48 50 52 53 53
13 15 16 14 12 13 16 18 19 21 21 19 20 21 20 19 20 21 21 21 21 21 22 22 21 20 20 20 20 21 19 20 22 22 20 21 21 20 21 22 23 24 25 27 28 25 23 28 31 28 28 30 29 27 28 27 26 26 27 28 26 27 34 38 37 40 44 43 42 44 40 38 46 51 48 44 41 38 36 35 35 36 38 40 45 48 50 53
14 14 14 14 15 15 17 18 17 18 18 19 22 23 23 24 23 20 21 22 21 21 21 20 20 19 20 20 21 22 20 19 20 22 22 24 23 22 23 25 25 27 29 30 28 27 27 30 31 29 28 29 28 28 32 33 32 33 32 29 27 27 30 35 37 39 41 42 43 43 39 37 42 47 45 42 40 39 37 34 33 33 35 37 41 44 48 51
19 19 18 17 18 18 18 18 17 17 18 20 24 25 24 25 24 22 22 22 21 21 21 21 20 21 22 23 25 27 25 22 22 24 25 26 26 25 26 27 27 28 31 30 28 29 32 32 31 32 31 29 29 30 32 33 31 31 33 32 33 32 33 35 37 37 38 41 39 36 37 41 41 39 40 42 41 39 39 39 37 36 38 41 44 46 47 48
23 25 26 24 23 21 21 21 21 20 20 21 23 25 24 23 24 25 23 21 21 21 22 24 22 21 23 24 26 29 29 28 28 29 29 29 30 29 29 29 29 28 30 31 29 31 35 34 34 37 36 32 32 33 33 34 35 35 36 37 37 38 40 41 39 37 39 42 39 36 39 44 41 36 39 43 44 44 48 52 52 49 47 46 46 46 46 46
30 29 28 29 28 26 26 26 25 23 23 23 24 26 25 25 25 25 23 22 24 21 22 26 25 22 22 22 24 30 33 33 34 34 33 33 33 33 34 33 31 30 31 33 34 34 36 38 38 41 40 36 36 38 37 39 41 40 41 41 41 42 42 43 43 41 41 40 39 39 40 41 40 38 39 44 46 47 51 57 58 56 51 48 47 47 46 45
43 39 35 32 29 27 29 29 27 25 25 26 27 27 27 27 27 26 24 25 28 26 24 28 28 24 24 25 27 33 35 35 36 37 35 36 36 35 37 38 35 35 35 38 40 39 40 43 44 45 45 41 40 42 42 43 44 44 44 43 43 44 44 44 45 45 46 44 43 44 43 40 40 39 39 42 45 45 46 49 50 50 49 49 49 49 48 46
45 47 47 43 34 31 32 29 27 28 29 29 31 31 31 30 30 30 29 29 31 31 31 32 32 29 29 30 32 34 35 35 37 37 36 37 38 37 39 40 39 42 44 44 47 46 47 49 50 50 50 46 44 45 45 45 45 44 44 44 45 45 46 46 46 46 47 47 45 46 45 41 42 43 41 42 45 45 45 45 48 50 50 50 50 50 49 48
38 42 47 49 44 40 39 34 31 34 37 35 34 34 34 34 33 33 35 35 34 35 36 37 38 38 38 39 39 38 38 38 39 39 39 40 41 40 42 43 44 47 51 52 53 53 53 55 55 55 53 49 46 47 46 46 45 42 41 42 41 42 43 42 43 43 44 45 45 45 43 42 43 46 45 45 46 47 45 44 47 51 51 50 51 50 49 49